Powrót do katalogu

COSMOS 1867 COOLANT

AktywnyLEO
NORAD 39668·DEBRIS·🇷🇺 Russia

Wystrzelony Jul 10, 1987 z Baikonur Cosmodrome

Loading…

Następne Przeloty (najbliższe 24 godziny)

TLE

ŚwieżeSource: Space-Track

Epoka: Sep 14, 2026, 05:31 UTC

1 39668U 87060AF  26257.22992293  .00000127  00000-0  81249-4 0  9991
2 39668  65.0085 117.7840 0019179 277.8025  82.0883 14.34056596649421

Śledź COSMOS 1867 COOLANT w czasie rzeczywistym z AllMySat

Download on the App Store